Boone, NC

1:15 AM EDT on August 29, 2016 (GMT -0400)
Boone

Weather History for KTNB - December, 2013

Change the Weather History Date:

Tuesday, December 24, 2013

  Actual Average (KGEV) Record (KGEV)
Temperature  
Mean Temperature 24 °F -  
Max Temperature 29 °F 44 °F 65 °F (2015)
Min Temperature 18 °F 23 °F -5 °F (1983)
Degree Days  
Heating Degree Days 42    
Moisture  
Dew Point 17 °F    
Average Humidity 73    
Maximum Humidity 91    
Minimum Humidity 55    
Precipitation  
Precipitation 0.00 in - - ()
Sea Level Pressure  
Sea Level Pressure 30.21 in    
Wind  
Wind Speed 15 mph (WNW)    
Max Wind Speed 24 mph    
Max Gust Speed 34 mph    
Visibility 9 miles    
Events Snow    
Averages and records for this station are not official NWS values.
T = Trace of Precipitation, MM = Missing Value Source: NWS Daily Summary

Daily Weather History Graph

Daily Weather History Graph

Search for Another Location

Airport or City:

Trip Planner

Search our weather history database for the weather conditions in past years. The results will help you decide how hot, cold, wet, or windy it might be!

Date:

Astronomy

Dec. 24, 2013 Rise Set
Actual Time 7:35 AM EST 5:17 PM EST
Civil Twilight 7:06 AM EST 5:46 PM EST
Nautical Twilight 6:34 AM EST 6:18 PM EST
Astronomical Twilight 6:03 AM EST 6:49 PM EST
Moon No Moon Rise 11:40 AM EST (12/24)
Length of Visible Light 10h 39m
Length of Day
9h 41m
Waning Gibbous, 59% of the Moon is Illuminated
Dec 24
Waning Gibbous
Dec 25
Last Quarter
Jan 1
New
Jan 7
First Quarter
Jan 15
Full

Hourly Weather History & Observations

Time (EST) Temp. Windchill Dew Point Humidity Pressure Visibility Wind Dir Wind Speed Gust Speed Precip Events Conditions
12:15 AM 29.7 °F 18.2 °F 26.2 °F 87% 30.17 in 10.0 mi WNW 16.1 mph 25.3 mph N/A   Clear
12:35 AM 29.7 °F 17.8 °F 26.4 °F 88% 30.16 in 10.0 mi WNW 17.3 mph 21.9 mph N/A   Clear
12:55 AM 29.3 °F 18.2 °F 25.9 °F 87% 30.16 in 10.0 mi WNW 15.0 mph 20.7 mph N/A   Clear
1:15 AM 28.9 °F 20.4 °F 26.1 °F 89% 30.15 in 10.0 mi WNW 9.2 mph - N/A   Clear
1:35 AM 28.9 °F 19.8 °F 26.4 °F 90% 30.16 in 10.0 mi WNW 10.4 mph 18.4 mph N/A   Scattered Clouds
1:55 AM 28.4 °F 18.0 °F 25.7 °F 90% 30.15 in 10.0 mi WNW 12.7 mph 24.2 mph N/A   Scattered Clouds
2:15 AM 28.4 °F 20.4 °F 25.7 °F 90% 30.16 in 10.0 mi West 8.1 mph 19.6 mph N/A   Scattered Clouds
2:35 AM 28.2 °F 18.3 °F 25.7 °F 90% 30.15 in 10.0 mi WNW 11.5 mph - N/A   Scattered Clouds
2:55 AM 28.0 °F 16.5 °F 25.5 °F 90% 30.16 in 10.0 mi WNW 15.0 mph 18.4 mph N/A   Scattered Clouds
3:15 AM 27.5 °F 15.0 °F 25.2 °F 91% 30.15 in 10.0 mi WNW 17.3 mph 21.9 mph N/A   Scattered Clouds
3:35 AM 27.0 °F 16.1 °F 23.9 °F 88% 30.16 in 10.0 mi WNW 12.7 mph 26.5 mph N/A   Scattered Clouds
3:55 AM 27.0 °F 15.2 °F 23.9 °F 88% 30.15 in 10.0 mi West 15.0 mph 21.9 mph N/A   Scattered Clouds
4:15 AM 26.6 °F 15.2 °F 23.9 °F 90% 30.15 in 10.0 mi WNW 13.8 mph - N/A   Mostly Cloudy
4:35 AM 26.6 °F 13.1 °F 23.4 °F 88% 30.15 in 10.0 mi WNW 19.6 mph 25.3 mph N/A   Overcast
4:55 AM 26.6 °F 17.5 °F 23.5 °F 88% 30.14 in 10.0 mi WNW 9.2 mph 19.6 mph N/A   Overcast
5:15 AM 26.4 °F 18.0 °F 23.5 °F 89% 30.15 in 10.0 mi WNW 8.1 mph 16.1 mph N/A   Overcast
5:35 AM 26.4 °F 15.5 °F 21.9 °F 83% 30.14 in 10.0 mi WNW 12.7 mph 24.2 mph N/A   Overcast
5:55 AM 26.1 °F 14.0 °F 21.2 °F 82% 30.14 in 10.0 mi WNW 15.0 mph 26.5 mph N/A   Mostly Cloudy
6:15 AM 26.1 °F 15.6 °F 21.2 °F 82% 30.16 in 10.0 mi WNW 11.5 mph 19.6 mph N/A   Mostly Cloudy
6:35 AM 26.2 °F 14.2 °F 21.2 °F 81% 30.16 in 10.0 mi WNW 15.0 mph 26.5 mph N/A   Mostly Cloudy
6:55 AM 26.1 °F 12.3 °F 21.0 °F 81% 30.15 in 10.0 mi WNW 19.6 mph 34.5 mph N/A   Scattered Clouds
7:15 AM 26.1 °F 13.6 °F 21.0 °F 81% 30.15 in 10.0 mi WNW 16.1 mph 28.8 mph N/A   Mostly Cloudy
7:35 AM 26.1 °F 13.1 °F 21.0 °F 81% 30.15 in 10.0 mi West 17.3 mph 29.9 mph N/A   Scattered Clouds
7:55 AM 26.1 °F 11.6 °F 21.2 °F 82% 30.17 in 10.0 mi WNW 21.9 mph 28.8 mph N/A   Scattered Clouds
8:15 AM 26.4 °F 11.8 °F 20.3 °F 78% 30.17 in 10.0 mi WNW 23.0 mph 29.9 mph N/A   Scattered Clouds
8:35 AM 26.6 °F 16.8 °F 20.7 °F 78% 30.19 in 10.0 mi West 10.4 mph 27.6 mph N/A   Scattered Clouds
8:55 AM 26.6 °F 13.4 °F 21.4 °F 81% 30.18 in 10.0 mi WNW 18.4 mph 27.6 mph N/A   Mostly Cloudy
9:15 AM 26.4 °F 12.5 °F 21.6 °F 82% 30.18 in 10.0 mi WNW 20.7 mph 29.9 mph N/A   Overcast
9:35 AM 26.6 °F 12.4 °F 21.7 °F 82% 30.19 in 10.0 mi WNW 21.9 mph 31.1 mph N/A   Overcast
9:55 AM 26.6 °F 12.4 °F 20.5 °F 78% 30.21 in 10.0 mi WNW 21.9 mph 32.2 mph N/A   Mostly Cloudy
10:15 AM 26.6 °F 11.7 °F 19.9 °F 76% 30.22 in 10.0 mi WNW 24.2 mph 32.2 mph N/A   Mostly Cloudy
10:35 AM 27.0 °F 12.5 °F 18.7 °F 71% 30.22 in 7.0 mi WNW 23.0 mph 32.2 mph N/A Snow Light Snow
10:55 AM 26.6 °F 14.3 °F 19.2 °F 74% 30.22 in 7.0 mi WNW 16.1 mph 31.1 mph N/A Snow Light Snow
11:15 AM 26.6 °F 11.7 °F 19.4 °F 74% 30.22 in 2.5 mi WNW 24.2 mph 31.1 mph N/A Snow Light Snow
11:35 AM 26.6 °F 15.2 °F 18.3 °F 71% 30.21 in 5.0 mi WNW 13.8 mph 23.0 mph N/A Snow Light Snow
11:55 AM 26.4 °F 14.0 °F 19.4 °F 75% 30.22 in 3.0 mi WNW 16.1 mph 25.3 mph N/A Snow Light Snow
12:15 PM 26.6 °F 12.0 °F 18.1 °F 70% 30.21 in 5.0 mi WNW 23.0 mph 28.8 mph N/A Snow Light Snow
12:35 PM 26.2 °F 13.8 °F 16.7 °F 67% 30.20 in 7.0 mi WNW 16.1 mph 32.2 mph N/A Snow Light Snow
12:55 PM 26.1 °F 12.7 °F 18.0 °F 71% 30.20 in 4.0 mi NW 18.4 mph 27.6 mph N/A Snow Light Snow
1:15 PM 26.2 °F 12.2 °F 16.0 °F 65% 30.20 in 7.0 mi NW 20.7 mph 32.2 mph N/A   Clear
1:35 PM 26.4 °F 13.6 °F 16.9 °F 67% 30.21 in 5.0 mi WNW 17.3 mph 25.3 mph N/A Snow Light Snow
1:55 PM 26.4 °F 16.0 °F 15.8 °F 64% 30.20 in 10.0 mi WNW 11.5 mph 25.3 mph N/A   Scattered Clouds
2:15 PM 26.2 °F 14.7 °F 16.0 °F 65% 30.21 in 10.0 mi NNW 13.8 mph 27.6 mph N/A   Scattered Clouds
2:35 PM 26.6 °F 14.3 °F 15.1 °F 62% 30.22 in 10.0 mi NW 16.1 mph 24.2 mph N/A   Mostly Cloudy
2:55 PM 25.7 °F 14.6 °F 14.5 °F 63% 30.22 in 10.0 mi NW 12.7 mph 24.2 mph N/A   Mostly Cloudy
3:15 PM 26.2 °F 14.2 °F 14.5 °F 61% 30.22 in 10.0 mi NW 15.0 mph 27.6 mph N/A   Mostly Cloudy
3:35 PM 26.2 °F 13.0 °F 13.8 °F 59% 30.21 in 10.0 mi NW 18.4 mph 26.5 mph N/A   Mostly Cloudy
3:55 PM 25.7 °F 13.5 °F 13.3 °F 59% 30.22 in 10.0 mi NW 15.0 mph 27.6 mph N/A   Scattered Clouds
4:15 PM 24.6 °F 13.2 °F 10.4 °F 55% 30.24 in 10.0 mi WNW 12.7 mph 27.6 mph N/A   Clear
4:35 PM 24.4 °F 11.5 °F 10.4 °F 55% 30.25 in 10.0 mi WNW 16.1 mph 29.9 mph N/A   Clear
4:55 PM 23.9 °F 11.7 °F 10.8 °F 57% 30.25 in 10.0 mi NNW 13.8 mph 27.6 mph N/A   Clear
5:15 PM 23.7 °F 10.1 °F 10.8 °F 58% 30.24 in 10.0 mi NW 17.3 mph 26.5 mph N/A   Clear
5:35 PM 23.0 °F 7.2 °F 10.4 °F 59% 30.25 in 10.0 mi NW 23.0 mph 31.1 mph N/A   Clear
5:55 PM 23.0 °F 10.1 °F 10.4 °F 59% 30.27 in 10.0 mi NW 15.0 mph 26.5 mph N/A   Clear
6:15 PM 22.6 °F 8.7 °F 10.9 °F 61% 30.27 in 10.0 mi NW 17.3 mph 26.5 mph N/A   Clear
6:35 PM 22.1 °F 8.9 °F 11.1 °F 63% 30.27 in 10.0 mi WNW 15.0 mph 20.7 mph N/A   Clear
6:55 PM 21.9 °F 11.0 °F 10.9 °F 63% 30.28 in 10.0 mi WNW 10.4 mph 18.4 mph N/A   Clear
7:15 PM 21.6 °F 8.2 °F 10.4 °F 62% 30.28 in 10.0 mi WNW 15.0 mph 21.9 mph N/A   Clear
7:35 PM 21.2 °F 9.5 °F 9.9 °F 62% 30.28 in 10.0 mi NW 11.5 mph 20.7 mph N/A   Clear
7:55 PM 21.0 °F 7.1 °F 10.0 °F 63% 30.28 in 10.0 mi NW 16.1 mph 23.0 mph N/A   Clear
8:15 PM 20.7 °F 4.9 °F 10.4 °F 65% 30.28 in 10.0 mi NW 20.7 mph 25.3 mph N/A   Clear
8:35 PM 20.3 °F 7.2 °F 10.2 °F 65% 30.28 in 10.0 mi WNW 13.8 mph 24.2 mph N/A   Clear
8:55 PM 20.1 °F 7.5 °F 9.3 °F 63% 30.28 in 10.0 mi WNW 12.7 mph 19.6 mph N/A   Clear
9:15 PM 20.1 °F 8.1 °F 8.6 °F 61% 30.29 in 10.0 mi WNW 11.5 mph 18.4 mph N/A   Clear
9:35 PM 19.8 °F 5.0 °F 8.4 °F 61% 30.29 in 10.0 mi WNW 17.3 mph 20.7 mph N/A   Clear
9:55 PM 19.4 °F 6.6 °F 8.2 °F 62% 30.29 in 10.0 mi West 12.7 mph 18.4 mph N/A   Clear
10:15 PM 19.2 °F 5.3 °F 8.4 °F 63% 30.30 in 10.0 mi WNW 15.0 mph - N/A   Clear
10:35 PM 18.9 °F 5.9 °F 8.4 °F 64% 30.30 in 10.0 mi WNW 12.7 mph 16.1 mph N/A   Clear
10:55 PM 18.5 °F 6.8 °F 8.1 °F 64% 30.30 in 10.0 mi WNW 10.4 mph - N/A   Clear
11:15 PM 18.5 °F 6.1 °F 8.1 °F 64% 30.30 in 10.0 mi West 11.5 mph 17.3 mph N/A   Clear
11:35 PM 18.5 °F 8.4 °F 7.7 °F 63% 30.30 in 10.0 mi West 8.1 mph - N/A   Clear
11:55 PM 18.5 °F 11.7 °F 7.7 °F 63% 30.31 in 10.0 mi West 4.6 mph - N/A   Clear